Location: Alpha Ridge Park
(39.3209°N, 76.9128°W)
Time: 04:37:51
(UTC-04:00)

Vanguard 2 Rocket - Pass Details

Date: 27 May 2019
Orbit: 554 x 3326 km, 32.9° (Epoch: 15 June)

Event Time Altitude Azimuth Distance (km) Brightness Sun altitude
Rises 03:27:33 0° 209° (SSW) 6,994 - -20.8°
Reaches altitude 10° 03:32:51 10° 200° (SSW) 6,162 - -20.2°
Exits shadow 03:36:47 18° 192° (SSW) 5,600 10.3 -19.8°
Maximum altitude 03:49:27 34° 145° (SE) 4,488 10.2 -18.2°
Drops below altitude 10° 04:03:54 10° 90° (E) 5,435 11.4 -16.4°
Sets 04:08:06 0° 81° (E) 6,113 12.0 -15.8°
